COSMOS 2485 (747)

Last updated on June 24, 2019, 3:41 a.m. UTC

1 39155U 13019A   19174.41753354  .00000079  00000-0  00000+0 0  9996
2 39155  64.6725 159.5288 0021442 240.0174  67.9094  2.13101925 47925
UTC
Height (km)
Latitude
Longitude
Inclination
Orbital Period
UTC large
Height (km)
Speed (km/s)
/
Latitude / Longitude
Inclination (degrees)
Orbital Period (minutes)
Azimuth
Elevation
Range (km)
Doppler Factor
iOS Compass Heading
iOS Angle

Next 30 passes for location: Hong Kong

Rise time Rise Azimuth (degrees) Set time Set Azimuth (degrees) Duration Max altitude (degrees)

No matching passes for this satellites